This demonstration page uses our WeatherBlox Daily Observations layout. Learn more.

Left ArrowRight Arrow

39.92423, -83.80882

Hourly Observations for October 23, 2021

Temp ( °F °C ) Dew Point ( °F °C ) Humidity (%) Winds ( mph kmh ) Pressure ( in mb ) Visibility ( mi km ) Precip ( " mm )
12:10 am 00:10 Cloudy with Mist and Fog 48 9 N/A N/A W 3 6 30.01 1016 3 5 N/A
12:23 am 00:23 Cloudy with Mist and Fog 48 9 N/A N/A W 3 6 30.01 1016 3 4 N/A
12:41 am 00:41 Cloudy with Light Rain 48 9 N/A N/A W 3 6 30.01 1016 3 5 N/A
12:56 am 00:56 Cloudy with Mist and Fog 48 9 N/A N/A WNW 3 6 30.00 1016 3 5 N/A
1:12 am 01:12 Cloudy with Light Rain 48 9 N/A N/A N N/A 30.00 1016 2 3 N/A
1:30 am 01:30 Cloudy with Light Rain 48 9 N/A N/A N N/A 29.99 1015 4 6 N/A
1:56 am 01:56 Cloudy with Haze 48 9 N/A N/A N N/A 29.99 1016 5 8 N/A
2:22 am 02:22 Cloudy with Haze 50 10 N/A N/A WSW 5 7 29.98 1015 6 10 N/A
2:36 am 02:36 Cloudy with Haze 50 10 N/A N/A SW 6 9 29.98 1015 5 8 N/A
2:56 am 02:56 Cloudy 50 10 N/A N/A SW 7 11 29.99 1016 7 11 N/A
3:56 am 03:56 Cloudy 50 10 N/A N/A W 9 15 29.99 1016 10 16 N/A
4:22 am 04:22 Cloudy 50 10 N/A N/A WSW 8 13 29.99 1016 10 16 N/A
4:56 am 04:56 Cloudy 50 10 N/A N/A WSW 8 13 29.99 1016 10 16 N/A
5:25 am 05:25 Cloudy with Light Rain 50 10 N/A N/A WSW 12 19 29.99 1016 10 16 N/A
5:41 am 05:41 Cloudy 48 9 N/A N/A NW 7 11 30.02 1016 10 16 N/A
5:56 am 05:56 Cloudy 48 8.9 48 8.9 100 100 NW 10 17 30.02 1017 10 16 N/A
6:13 am 06:13 Cloudy 48 9 48 9 100 100 NW 10 17 30.04 1017 10 16 N/A
6:56 am 06:56 Cloudy 46 8 N/A N/A WNW 7 11 30.04 1017 10 16 N/A
7:06 am 07:06 Cloudy 46 8 N/A N/A WNW 7 11 30.05 1018 10 16 N/A
7:14 am 07:14 Cloudy 46 8 N/A N/A WNW 7 11 30.04 1017 10 16 N/A
7:56 am 07:56 Cloudy 46 8 N/A N/A WNW 6 9 30.04 1017 10 16 N/A
8:38 am 08:38 Mostly Cloudy 46 8 N/A N/A W 6 9 30.06 1018 9 14 N/A
8:46 am 08:46 Mostly Cloudy 46 8 N/A N/A W 6 9 30.06 1018 9 14 N/A
8:56 am 08:56 Cloudy 46 8 N/A N/A NW 5 7 30.06 1018 10 16 N/A
9:44 am 09:44 Cloudy 48 9 48 9 100 100 W 7 11 30.09 1019 10 16 N/A
9:56 am 09:56 Cloudy 49 9.4 49 9.4 100 100 WSW 7 11 30.08 1019 10 16 N/A
10:22 am 10:22 Cloudy 48 9 48 9 100 100 WSW 7 11 30.09 1019 10 16 N/A
10:35 am 10:35 Cloudy 50 10 48 9 94 94 WSW 7 11 30.08 1019 10 16 N/A
10:45 am 10:45 Cloudy 50 10 48 9 94 94 WSW 8 13 30.08 1019 10 16 N/A
10:56 am 10:56 Cloudy 51 10.6 49 9.4 92 92 WSW 8 13 30.08 1019 10 16 N/A
11:11 am 11:11 Cloudy 52 11 48 9 88 88 WSW 8 13 30.08 1019 10 16 N/A
11:56 am 11:56 Mostly Cloudy 54 12.2 47 8.3 77 77 WSW 10 17 30.07 1018 10 16 N/A
12:24 pm 12:24 Mostly Cloudy 55 13 46 8 72 72 SW 13 20 30.07 1018 10 16 N/A
12:52 pm 12:52 Mostly Cloudy 57 14 46 8 67 67 SW 10 17 30.05 1017 10 16 N/A
12:56 pm 12:56 Mostly Cloudy 55 12.8 45 7.2 69 69 SW 13 20 30.06 1018 10 16 N/A
1:16 pm 13:16 Partly Cloudy 55 13 45 7 67 67 WNW 9 15 30.03 1017 10 16 N/A
1:56 pm 13:56 Partly Cloudy 58 14.4 44 6.7 60 60 WSW 12 19 30.03 1017 10 16 N/A
2:56 pm 14:56 Mostly Cloudy 58 14.4 43 6.1 58 58 SW 12 19 30.02 1017 10 16 N/A
3:56 pm 15:56 Cloudy 57 13.9 42 5.6 58 58 WSW 13 20 30.02 1017 10 16 N/A
4:56 pm 16:56 Cloudy 56 13.3 43 6.1 62 62 SW 8 13 30.03 1017 10 16 N/A
5:56 pm 17:56 Cloudy 55 12.8 43 6.1 64 64 SW 7 11 30.02 1017 10 16 N/A
6:56 pm 18:56 Cloudy with Light Rain 52 11.1 48 8.9 86 86 SW 5 7 30.04 1017 10 16 N/A
7:56 pm 19:56 Cloudy with Light Rain 51 10.6 51 10.6 100 100 W 5 7 30.04 1017 10 16 N/A
8:56 pm 20:56 Cloudy with Light Rain 50 10 50 10 100 100 N 3 6 30.04 1017 10 16 N/A
9:56 pm 21:56 Cloudy 51 10.6 50 10 96 96 N N/A 30.05 1018 10 16 N/A
10:56 pm 22:56 Cloudy 51 10.6 51 10.6 100 100 N N/A 30.05 1018 10 16 N/A
11:08 pm 23:08 Cloudy 50 10 50 10 100 100 N N/A 30.06 1018 10 16 N/A
11:56 pm 23:56 Cloudy 50 10 50 10 100 100 N N/A 30.06 1018 10 16 N/A

Powered by AerisWeather